This is the latest recevied weather packets stored in our database for station/object K0QED. If no packets are shown the sender has not sent any weather packets the latest 10 day(s).
| Time | Temp. | Humidity | Pressure | Rain* | Wind** | Luminosity | Snow |
|---|---|---|---|---|---|---|---|
| 1788409757 | 18.33° C | 51% | 1023.9 hPa | 0 mm | - | 0 W/m² | - |
| 1788409453 | 18.89° C | 50% | 1023.6 hPa | 0 mm | - | 0 W/m² | - |
| 1788409148 | 18.89° C | 50% | 1023.9 hPa | 0 mm | - | 0 W/m² | - |
| 1788408844 | 18.89° C | 49% | 1023.6 hPa | 0 mm | - | 0 W/m² | - |
| 1788408540 | 19.44° C | 48% | 1024 hPa | 0 mm | - | 0 W/m² | - |
| 1788408239 | 19.44° C | 47% | 1023.9 hPa | 0 mm | - | 0 W/m² | - |
| 1788407935 | 20° C | 46% | 1023.7 hPa | 0 mm | - | 0 W/m² | - |
| 1788407630 | 20° C | 45% | 1023.6 hPa | 0 mm | - | 0 W/m² | - |
| 1788407326 | 20° C | 43% | 1023.9 hPa | 0 mm | - | 0 W/m² | - |
| 1788407021 | 19.44° C | 45% | 1024 hPa | 0 mm | - | 0 W/m² | - |
| 1788406716 | 20° C | 45% | 1023.7 hPa | 0 mm | - | 0 W/m² | - |
| 1788406411 | 20.56° C | 43% | 1023.6 hPa | 0 mm | - | 0 W/m² | - |
| 1788406110 | 20° C | 42% | 1023.6 hPa | 0 mm | - | 0 W/m² | - |
| 1788405807 | 20° C | 39% | 1023.9 hPa | 0 mm | - | 0 W/m² | - |
| 1788405502 | 20° C | 39% | 1023.6 hPa | 0 mm | - | 0 W/m² | - |
| 1788405201 | 20° C | 38% | 1023.6 hPa | 0 mm | - | 0 W/m² | - |
| 1788404897 | 20° C | 38% | 1023.2 hPa | 0 mm | - | 0 W/m² | - |
| 1788404593 | 20° C | 37% | 1023.4 hPa | 0 mm | - | 0 W/m² | - |
| 1788404288 | 20° C | 38% | 1023.4 hPa | 0 mm | - | 0 W/m² | - |
| 1788403983 | 19.44° C | 38% | 1023.4 hPa | 0 mm | - | 0 W/m² | - |
| 1788403678 | 19.44° C | 39% | 1023.1 hPa | 0 mm | - | 0 W/m² | - |
| 1788403377 | 20° C | 38% | 1023 hPa | 0 mm | - | 0 W/m² | - |
| 1788403073 | 20° C | 38% | 1022.7 hPa | 0 mm | - | 0 W/m² | - |
| 1788402769 | 20° C | 37% | 1022.6 hPa | 0 mm | - | 0 W/m² | - |
| 1788402463 | 20° C | 37% | 1022.6 hPa | 0 mm | - | 0 W/m² | - |
* Rain latest hour (hover to see other rain measurements)
** Current wind speed in m/s (hover to see current wind gust speed)